This is the latest recevied weather packets stored in our database for station/object VE4GLS. If no packets are shown the sender has not sent any weather packets the latest 10 day(s).
| Time | Temp. | Humidity | Pressure | Rain* | Wind** | Luminosity | Snow |
|---|---|---|---|---|---|---|---|
| 1778179894 | 11.67° C | 36% | 1007.5 hPa | 0 mm | - | - | - |
| 1778179654 | 11.11° C | 35% | 1007.5 hPa | 0 mm | - | - | - |
| 1778179294 | 11.67° C | 35% | 1007.6 hPa | 0 mm | - | - | - |
| 1778178754 | 11.11° C | 35% | 1007.7 hPa | 0 mm | - | - | - |
| 1778178694 | 11.11° C | 37% | 1007.7 hPa | 0 mm | - | - | - |
| 1778178096 | 11.11° C | 37% | 1007.7 hPa | 0 mm | - | - | - |
| 1778177856 | 10.56° C | 37% | 1007.7 hPa | 0 mm | - | - | - |
| 1778177496 | 10.56° C | 36% | 1007.8 hPa | 0 mm | - | - | - |
| 1778176955 | 10.56° C | 37% | 1008.1 hPa | 0 mm | - | - | - |
| 1778176895 | 10.56° C | 36% | 1008.1 hPa | 0 mm | - | - | - |
| 1778176295 | 10° C | 38% | 1008.3 hPa | 0 mm | - | - | - |
| 1778176055 | 10° C | 38% | 1008.4 hPa | 0 mm | - | - | - |
| 1778175694 | 9.44° C | 40% | 1008.4 hPa | 0 mm | - | - | - |
| 1778175156 | 9.44° C | 40% | 1008.6 hPa | 0 mm | - | - | - |
| 1778175096 | 9.44° C | 41% | 1008.6 hPa | 0 mm | - | - | - |
| 1778174495 | 9.44° C | 38% | 1008.6 hPa | 0 mm | - | - | - |
| 1778174255 | 9.44° C | 39% | 1008.7 hPa | 0 mm | - | - | - |
| 1778173895 | 9.44° C | 40% | 1008.6 hPa | 0 mm | - | - | - |
| 1778173355 | 9.44° C | 38% | 1008.8 hPa | 0 mm | - | - | - |
| 1778173295 | 9.44° C | 39% | 1008.7 hPa | 0 mm | - | - | - |
| 1778172696 | 8.89° C | 40% | 1008.9 hPa | 0 mm | - | - | - |
| 1778172456 | 8.89° C | 40% | 1008.9 hPa | 0 mm | - | - | - |
| 1778172095 | 8.89° C | 41% | 1008.9 hPa | 0 mm | - | - | - |
| 1778171555 | 8.33° C | 42% | 1009 hPa | 0 mm | - | - | - |
| 1778171495 | 8.33° C | 41% | 1009 hPa | 0 mm | - | - | - |
* Rain latest hour (hover to see other rain measurements)
** Current wind speed in m/s (hover to see current wind gust speed)